• In Portugal
  • List of Countries
  • For 7 days
  • Water Temperature
  • Satellite Maps
  • Weather Map
  • Weather Widgets
  • user-avatar
    Login

    Hourly Weather Grzedy

    Today, 19 September, Wednesday

    Time Temperature Precipitation Wind Pressure Humidity
    00:00 +17°C° 0 mm 3 mps 719 mmHg 66%
    01:00 +17°C° 0 mm 3 mps 719 mmHg 66%
    02:00 +16°C° 0 mm 3 mps 719 mmHg 67%
    03:00 +16°C° 0 mm 3 mps 719 mmHg 68%
    04:00 +16°C° 0 mm 3 mps 719 mmHg 69%
    05:00 +16°C° 0 mm 3 mps 719 mmHg 69%
    06:00 +16°C° 0 mm 2 mps 719 mmHg 69%
    07:00 +17°C° 0 mm 2 mps 720 mmHg 69%
    08:00 +19°C° 0 mm 2 mps 720 mmHg 64%
    09:00 +20°C° 0 mm 2 mps 720 mmHg 59%
    10:00 +23°C° 0 mm 2 mps 721 mmHg 54%
    11:00 +24°C° 0 mm 2 mps 721 mmHg 52%
    12:00 +25°C° 0 mm 2 mps 721 mmHg 50%
    13:00 +26°C° 0 mm 2 mps 721 mmHg 48%
    14:00 +26°C° 0 mm 2 mps 721 mmHg 48%
    15:00 +26°C° 0 mm 1 mps 721 mmHg 49%
    16:00 +26°C° 0 mm 1 mps 720 mmHg 49%
    17:00 +24°C° 0 mm 1 mps 720 mmHg 55%
    18:00 +22°C° 0 mm 1 mps 720 mmHg 62%
    19:00 +19°C° 0 mm 2 mps 720 mmHg 69%
    20:00 +19°C° 0 mm 2 mps 720 mmHg 71%
    21:00 +18°C° 0 mm 2 mps 720 mmHg 73%
    22:00 +18°C° 0 mm 2 mps 720 mmHg 75%
    23:00 +17°C° 0 mm 2 mps 720 mmHg 77%

    Tomorrow, 20 September, Thursday

    Time Temperature Precipitation Wind Pressure Humidity
    00:00 +17°C° 0 mm 2 mps 720 mmHg 78%
    01:00 +17°C° 0 mm 2 mps 720 mmHg 80%
    02:00 +16°C° 0 mm 2 mps 720 mmHg 81%
    03:00 +16°C° 0 mm 2 mps 720 mmHg 82%
    04:00 +16°C° 0 mm 2 mps 720 mmHg 83%
    05:00 +16°C° 0 mm 2 mps 720 mmHg 82%
    06:00 +17°C° 0 mm 2 mps 720 mmHg 80%
    07:00 +19°C° 0 mm 1 mps 720 mmHg 79%
    08:00 +21°C° 0 mm 1 mps 721 mmHg 71%
    09:00 +23°C° 0 mm 1 mps 721 mmHg 64%
    10:00 +25°C° 0 mm 1 mps 721 mmHg 57%
    11:00 +25°C° 0 mm 2 mps 721 mmHg 54%
    12:00 +26°C° 0 mm 2 mps 721 mmHg 50%
    13:00 +27°C° 0 mm 2 mps 721 mmHg 47%
    14:00 +27°C° 0 mm 2 mps 721 mmHg 47%
    15:00 +27°C° 0 mm 2 mps 720 mmHg 47%
    16:00 +27°C° 0 mm 2 mps 720 mmHg 48%
    17:00 +25°C° 0 mm 1 mps 720 mmHg 54%
    18:00 +23°C° 0 mm 1 mps 720 mmHg 60%
    19:00 +21°C° 0 mm 1 mps 719 mmHg 66%
    20:00 +20°C° 0 mm 1 mps 719 mmHg 68%
    21:00 +19°C° 0 mm 2 mps 719 mmHg 70%
    22:00 +18°C° 0 mm 2 mps 719 mmHg 72%
    23:00 +18°C° 0 mm 2 mps 719 mmHg 74%

    Day after tomorrow, 21 September, Friday

    Time Temperature Precipitation Wind Pressure Humidity
    00:00 +18°C° 0 mm 2 mps 718 mmHg 76%
    01:00 +17°C° 0 mm 2 mps 718 mmHg 78%
    02:00 +17°C° 0 mm 2 mps 718 mmHg 78%
    03:00 +17°C° 0 mm 2 mps 717 mmHg 79%
    04:00 +16°C° 0 mm 2 mps 717 mmHg 79%
    05:00 +17°C° 0 mm 3 mps 717 mmHg 76%
    06:00 +17°C° 0 mm 3 mps 717 mmHg 74%
    07:00 +17°C° 0 mm 3 mps 716 mmHg 71%
    08:00 +19°C° 0 mm 4 mps 716 mmHg 63%
    09:00 +21°C° 0 mm 5 mps 716 mmHg 55%
    10:00 +23°C° 0 mm 6 mps 716 mmHg 47%
    11:00 +24°C° 0 mm 6 mps 716 mmHg 45%
    12:00 +26°C° 0 mm 6 mps 715 mmHg 43%
    13:00 +27°C° 0 mm 7 mps 715 mmHg 40%
    14:00 +27°C° 0 mm 6 mps 714 mmHg 42%
    15:00 +26°C° 0 mm 6 mps 714 mmHg 44%
    16:00 +26°C° 0 mm 6 mps 713 mmHg 46%
    17:00 +25°C° 0 mm 5 mps 712 mmHg 48%
    18:00 +23°C° 0 mm 5 mps 712 mmHg 51%
    19:00 +21°C° 0 mm 5 mps 711 mmHg 53%
    20:00 +21°C° 0 mm 6 mps 712 mmHg 54%
    21:00 +20°C° 0 mm 6 mps 712 mmHg 56%
    22:00 +20°C° 0 mm 6 mps 712 mmHg 57%
    23:00 +16°C° 1.2 mm 7 mps 713 mmHg 66%

    22 September, Saturday

    Time Temperature Precipitation Wind Pressure Humidity
    00:00 +12°C° 1.2 mm 7 mps 714 mmHg 74%
    01:00 +10°C° 1.2 mm 8 mps 715 mmHg 83%
    02:00 +9°C° 0.8 mm 7 mps 716 mmHg 81%
    03:00 +9°C° 0.8 mm 6 mps 717 mmHg 80%
    04:00 +8°C° 0.8 mm 5 mps 718 mmHg 79%
    05:00 +8°C° 0 mm 5 mps 718 mmHg 77%
    06:00 +8°C° 0 mm 5 mps 718 mmHg 75%
    07:00 +7°C° 0 mm 5 mps 719 mmHg 74%
    08:00 +8°C° 0 mm 5 mps 719 mmHg 70%
    09:00 +9°C° 0 mm 6 mps 719 mmHg 65%
    10:00 +10°C° 0 mm 6 mps 720 mmHg 61%
    11:00 +11°C° 0 mm 6 mps 720 mmHg 57%
    12:00 +13°C° 0 mm 6 mps 720 mmHg 54%
    13:00 +13°C° 0 mm 6 mps 720 mmHg 50%
    14:00 +13°C° 0 mm 6 mps 720 mmHg 49%
    15:00 +14°C° 0 mm 6 mps 720 mmHg 47%
    16:00 +14°C° 0 mm 5 mps 720 mmHg 46%
    17:00 +12°C° 0 mm 4 mps 720 mmHg 51%
    18:00 +11°C° 0 mm 3 mps 720 mmHg 56%
    19:00 +9°C° 0 mm 2 mps 720 mmHg 61%
    20:00 +9°C° 0 mm 2 mps 720 mmHg 63%
    21:00 +8°C° 0 mm 2 mps 720 mmHg 65%
    22:00 +8°C° 0 mm 3 mps 720 mmHg 67%
    23:00 +7°C° 0 mm 2 mps 720 mmHg 69%

    23 September, Sunday

    Time Temperature Precipitation Wind Pressure Humidity
    00:00 +7°C° 0 mm 2 mps 720 mmHg 71%
    01:00 +7°C° 0 mm 2 mps 720 mmHg 72%
    02:00 +6°C° 0 mm 2 mps 720 mmHg 74%
    03:00 +6°C° 0 mm 2 mps 720 mmHg 75%
    04:00 +6°C° 0 mm 2 mps 720 mmHg 76%
    05:00 +6°C° 0 mm 2 mps 719 mmHg 74%
    06:00 +7°C° 0 mm 2 mps 719 mmHg 72%
    07:00 +7°C° 0 mm 2 mps 719 mmHg 69%
    08:00 +9°C° 0 mm 3 mps 719 mmHg 64%
    09:00 +11°C° 0 mm 4 mps 719 mmHg 58%
    10:00 +12°C° 0 mm 4 mps 719 mmHg 52%
    11:00 +13°C° 0 mm 5 mps 718 mmHg 49%
    12:00 +13°C° 0 mm 5 mps 717 mmHg 47%
    13:00 +14°C° 0 mm 5 mps 715 mmHg 45%
    14:00 +13°C° 0.5 mm 5 mps 714 mmHg 53%
    15:00 +12°C° 0.5 mm 5 mps 714 mmHg 62%
    16:00 +11°C° 0.5 mm 4 mps 713 mmHg 71%
    17:00 +10°C° 0.5 mm 5 mps 712 mmHg 71%
    18:00 +10°C° 0.5 mm 6 mps 711 mmHg 72%
    19:00 +9°C° 0.5 mm 6 mps 710 mmHg 72%
    20:00 +10°C° 0.2 mm 7 mps 708 mmHg 73%
    21:00 +10°C° 0.2 mm 7 mps 707 mmHg 74%
    22:00 +10°C° 0.2 mm 7 mps 705 mmHg 75%
    23:00 +10°C° 2.6 mm 7 mps 705 mmHg 78%

    24 September, Monday

    Time Temperature Precipitation Wind Pressure Humidity
    00:00 +10°C° 2.6 mm 8 mps 705 mmHg 81%
    01:00 +9°C° 2.6 mm 8 mps 705 mmHg 84%
    02:00 +9°C° 0.4 mm 8 mps 705 mmHg 82%
    03:00 +9°C° 0.4 mm 8 mps 704 mmHg 80%
    04:00 +7°C° 0.4 mm 8 mps 703 mmHg 77%
    05:00 +7°C° 0.1 mm 8 mps 703 mmHg 77%
    06:00 +7°C° 0.1 mm 8 mps 703 mmHg 76%
    07:00 +7°C° 0.1 mm 9 mps 702 mmHg 75%
    08:00 +8°C° 0.1 mm 9 mps 702 mmHg 74%
    09:00 +8°C° 0.1 mm 9 mps 702 mmHg 72%
    10:00 +9°C° 0.1 mm 10 mps 702 mmHg 71%
    11:00 +10°C° 0.3 mm 9 mps 703 mmHg 73%
    12:00 +10°C° 0.3 mm 9 mps 704 mmHg 74%
    13:00 +10°C° 0.3 mm 9 mps 704 mmHg 76%
    14:00 +8°C° 0.2 mm 9 mps 705 mmHg 77%
    15:00 +7°C° 0.2 mm 9 mps 705 mmHg 77%
    16:00 +7°C° 0.2 mm 9 mps 706 mmHg 78%
    17:00 +6°C° 0.1 mm 9 mps 706 mmHg 79%
    18:00 +6°C° 0.1 mm 9 mps 706 mmHg 79%
    19:00 +6°C° 0.1 mm 8 mps 707 mmHg 80%
    20:00 +6°C° 0.2 mm 8 mps 707 mmHg 82%
    21:00 +6°C° 0.2 mm 8 mps 708 mmHg 83%
    22:00 +6°C° 0.2 mm 8 mps 708 mmHg 85%
    23:00 +5°C° 0.7 mm 9 mps 708 mmHg 85%
    Show more